Location: Newark
(45.5000°N, 11.4167°E)
Time: 08:10:17
(UTC+00:00)

Altair - Pass Details

Date: 28 August 2019
Orbit: 1501 x 1683 km, 47.2° (Epoch: 19 September)

Event Time Altitude Azimuth Distance (km) Brightness Sun altitude
Exits shadow 00:54:45 56° 181° (S) 1,881 7.5 -30.3°
Maximum altitude 00:56:13 61° 148° (SSE) 1,801 7.6 -30.2°
Drops below altitude 10° 01:05:36 10° 71° (ENE) 3,774 10.1 -29.4°
Sets 01:08:40 0° 68° (ENE) 4,736 10.8 -29.1°
